Regional Weather Roundup
Issued by NWS

Home | Current Version | Previous Version | Graphics & Text | Print | Product List | Glossary On
Versions: 1 2 3 4 5 6 7 8 9 10 11 12 13 14 15 16 17 18 19 20 21 22 23 24 25 26 27 28 29 30 31 32 33 34 35 36 37 38 39 40 41 42 43 44 45 46 47 48 49 50
000
ASUS43 KMKX 010421
RWRWI

WISCONSIN REGIONAL WEATHER ROUNDUP
NATIONAL WEATHER SERVICE MILWAUKEE/SULLIVAN WI
1100 PM CDT TUE JUN 30 2015

NOTE: "FAIR" INDICATES FEW OR NO CLOUDS BELOW 12,000 FEET WITH NO
SIGNIFICANT WEATHER AND/OR OBSTRUCTIONS TO VISIBILITY.

WIZ001-002-006>008-014>016-023>028-010500-
NORTHWEST WISCONSIN

CITY           SKY/WX    TMP DP  RH WIND       PRES   REMARKS
SUPERIOR ARPT  CLEAR     53  51  94 NE5       29.99S
ASHLAND        CLEAR     43  43 100 CALM      30.01R
HAYWARD        CLEAR     51  48  89 NE3       29.99S
SIREN          CLEAR     58  51  78 E3        29.98S
CUMBERLAND     CLEAR     54  50  87 CALM      29.99R
RICE LAKE      CLEAR     56  49  78 E3        30.00S
CHETEK         CLEAR     58  52  79 NE3       29.99S
LADYSMITH      CLEAR     52  49  88 NE5       30.01S
EAU CLAIRE     CLEAR     57  48  72 NE6       29.96S
MENOMONIE      CLEAR     61  48  62 NE7       29.98S
NEW RICHMOND   CLEAR     58  51  78 E8        29.97S
OSCEOLA        CLEAR     60  55  84 E7        29.99S
$$

WIZ003>005-009-010-017-018-010500-
NORTH CENTRAL WISCONSIN

CITY           SKY/WX    TMP DP  RH WIND       PRES   REMARKS
MANITOWISH WTR CLEAR     43  43 100 CALM      30.00R
ARBOR VITAE    CLEAR     45  42  91 N3        29.99S
WOODRUFF       CLEAR     45  42  91 N3        29.99S
RHINELANDER    CLEAR     48  44  86 CALM      29.99S
EAGLE RIVER    CLEAR     43  43 100 CALM      29.97F
LAND O LAKES   CLEAR     42  41  98 CALM      29.99F
PHILLIPS       CLEAR     45  43  94 CALM      29.99S
TOMAHAWK       CLEAR     44  41  91 CALM      30.00R
MEDFORD        CLEAR     50  47  92 N3        29.98S
MERRILL        CLEAR     46  45  96 CALM      29.99S
$$

WIZ029-030-035-036-043>047-010500-
CENTRAL WISCONSIN

CITY           SKY/WX    TMP DP  RH WIND       PRES   REMARKS
WAUSAU         CLEAR     54  46  74 N6        29.96S
MOSINEE        CLEAR     52  46  82 N6        29.99R
MARSHFIELD     CLEAR     58  44  60 NE8       29.97R
STEVENS POINT  CLEAR     52  46  80 N3        29.97S
WAUPACA        CLEAR     59  52  77 N6        29.96S
WAUTOMA        MOCLDY    61  56  83 CALM      29.95R
WISC RAPIDS    CLEAR     59  46  62 NE9       29.97R
CAMP DOUGLAS   PTCLDY    55  55 100 N1        29.94S
$$

WIZ011>013-019>022-031-037>040-048>050-010500-
NORTHEAST WISCONSIN

CITY           SKY/WX    TMP DP  RH WIND       PRES   REMARKS
ANTIGO         CLEAR     47  46  93 N3        29.98S
SHAWANO        CLEAR     54  47  78 NW3       29.96F
OCONTO         MOCLDY    49  49 100 CALM      29.94S
STURGEON BAY   CLOUDY    55  45  67 N13       29.95F
GREEN BAY      CLEAR     53  49  86 N7        29.96R
MANITOWOC      CLOUDY    56  54  93 MISG      29.94R
APPLETON       PTCLDY    55  48  76 N9        29.96R
CLINTONVILLE   CLEAR     54  46  76 N6        29.96F
OSHKOSH        MOCLDY    61  51  70 N13       29.93R
$$

WIZ032>034-041-042-053>061-010500-
SOUTHWEST WISCONSIN

CITY           SKY/WX    TMP DP  RH WIND       PRES   REMARKS
LA CROSSE      CLEAR     63  55  75 N6        29.94R
SPARTA         PTCLDY    54  52  94 CALM      29.96R
VIROQUA        CLEAR     59  55  88 CALM      29.95S
BOSCOBEL       PTCLDY    61  58  90 CALM      29.94R
PRAIRIE DU CHI CLEAR     64  54  70 CALM      29.93R
PLATTEVILLE    CLEAR     62  59  91 N5        29.93R
$$

WIZ056-057-062-063-064-067-068-010500-
SOUTH CENTRAL WISCONSIN

CITY           SKY/WX    TMP DP  RH WIND       PRES   REMARKS
REEDSBURG      CLEAR     60  54  80 W3        29.94R
BARABOO/DELLS  PTCLDY    61  53  75 CALM      29.94R
LONE ROCK      CLEAR     61  54  77 N5        29.94R
MINERAL POINT  CLEAR     61  55  82 N7        29.94R
MADISON        PTCLDY    62  54  74 N3        29.91S
MIDDLETON      PTCLDY    61  55  79 N5        29.92F
WATERTOWN      CLOUDY    60  60 100 E7        29.92R
MONROE         PTCLDY    63  55  77 N7        29.91S
JANESVILLE     MOCLDY    64  63  94 E9        29.90S
$$

WIZ051-052-058>065-066-070>072-010500-
SOUTHEAST WISCONSIN

CITY           SKY/WX    TMP DP  RH WIND       PRES   REMARKS
MILWAUKEE      MOCLDY    54  50  86 NE7       29.94R
WAUKESHA       MOCLDY    52  50  93 E5        29.94F
MILWAUKEE/TIMM PTCLDY    54  46  76 NE6       29.95R
RACINE         CLOUDY    55  50  83 NE8       29.95R
BURLINGTON     CLOUDY    55  52  90 E5        29.94R
KENOSHA        CLOUDY    56  52  86 NE5       29.94R
FOND DU LAC    CLOUDY    63  55  75 NE8       29.93R
SHEBOYGAN      CLOUDY    54  51  90 NE5       29.94R
WEST BEND      MOCLDY    54  50  87 CALM      29.94S
JUNEAU         PTCLDY    60  57  88 E8        29.93S
$$

LSZ147-162-010500-
LAKE SUPERIOR

STATION/POSITION TIME  TEMP    WIND        PRES    WAVE
                       AIR SEA DIR/SP/G            HT/PER
                 (UTC) (F)     (DEG/KT/KT) (MB)    (FT/S)
W MID LAKE BUOY  0350   46 38  310/  6/  6 1016.5S   1/ 5
DEVILS ISLAND    0400   54     120/  5/  7 1016.5R
SAXON HARBOR     0340   47        CALM     1015.9R
$$

LMZ867-665-643>646-010500-
LAKE MICHIGAN

STATION/POSITION TIME  TEMP    WIND        PRES    WAVE
                       AIR SEA DIR/SP/G            HT/PER
                 (UTC) (F)     (DEG/KT/KT) (MB)    (FT/S)
CHAMBERS ISLAND  0300   58     330/ 14/ 16 1013.5R
N MID LAKE BUOY  0350   46 41  320/ 10/ 10 1012.8F   3/ 5
NORTHPORT PIER   0300   54     340/ 16/ 19 1013.5R
SISTER BAY       0244   55      20/ 14/ 22   N/A
ALGOMA LAKESHORE 0310          350/  6/  9   N/A
KEWAUNEE LAKESHO 0300   58     360/ 11/ 15 1013.0R
SHEBOYGAN LAKESH 0400   54      20/ 10/ 11 1013.9R
PORT WASHINGTON  0300   57      40/ 11/ 16 1014.2
ATWATER BUOY     0400   56      20/ 10/ 14 1015.0R
MILWAUKEE LAKESH 0400   55      20/ 11/ 13   N/A
KENOSHA   LAKESH 0400   57      20/ 10/ 14 1013.9
$$

TC  - TEMPERATURE IN CELSIUS
VSB - VISIBILITY IN STATUTE MILES
WCI - WIND CHILL INDEX
HX  - HEAT INDEX




USA.gov is the U.S. government's official web portal to all federal, state and local government web resources and services.